Regional Weather Roundup
Issued by NWS Boston, MA

Home | Current Version | Previous Version | Text Only | Print | Product List | Glossary On
Versions: 1 2 3 4 5 6 7 8 9 10 11 12 13 14 15 16 17 18 19 20 21 22 23 24 25 26 27 28
000
ASUS41 KBOX 312210
RWRBOX

REGIONAL WEATHER ROUNDUP
NATIONAL WEATHER SERVICE TAUNTON MA
600 PM EDT FRI OCT 31 2014

NOTE:  "FAIR" INDICATES FEW OR NO CLOUDS BELOW 12,000 FEET WITH NO
SIGNIFICANT WEATHER AND/OR OBSTRUCTIONS TO VISIBILITY.  THE FOLLOWING
OBSERVATION LOCATIONS DO NOT REPORT PRESENT WEATHER...PROVINCETOWN...
SMITHFIELD...BLOCK ISLAND...KEENE...AND OXFORD.

MAZALL-312300-
EASTERN MASSACHUSETTS

CITY           SKY/WX    TMP DP  RH WIND       PRES   REMARKS
BOSTON         CLOUDY    50  37  61 E14       29.99S
BEVERLY        CLOUDY    48  35  60 NE6       29.99F
LAWRENCE       CLOUDY    48  35  60 NE7       30.02S
BEDFORD        CLOUDY    48  35  60 NE9       29.98S
BLUE HILL        N/A     47  36  65 E13G22    29.96S
NORWOOD        CLOUDY    49  37  63 E10       29.98R
MARSHFIELD     NOT AVBL
PLYMOUTH       CLOUDY    50  38  63 NE10      29.98R
TAUNTON        CLOUDY    50  39  66 VRB3      29.97R
NEW BEDFORD    CLOUDY    50  42  74 NE9       29.95S
$$

MAZALL-312300-
CAPE COD AND THE ISLANDS

CITY           SKY/WX    TMP DP  RH WIND       PRES   REMARKS
FALMOUTH       CLOUDY    50  43  76 NE13G21   29.96S
HYANNIS        CLOUDY    52  42  69 NE8       29.95F
CHATHAM        CLOUDY    51  42  71 NE15G21   29.98S
PROVINCETOWN   CLOUDY    50  -2  11 NE13G20   29.99S
NANTUCKET      CLOUDY    53  44  71 NE14      29.94S
MARTHAS VNYRD  CLOUDY    52  44  74 E15G24    29.95R
$$

MAZALL-312300-
CENTRAL AND WESTERN MASSACHUSETTS

CITY           SKY/WX    TMP DP  RH WIND       PRES   REMARKS
WORCESTER      CLOUDY    46  36  68 NE8       29.96S
FITCHBURG      CLOUDY    50  36  58 E7        29.99S
ORANGE         CLOUDY    48  36  63 NE6       29.96S
SPRINGFIELD    CLOUDY    50  38  63 NE6       29.95R
WESTFIELD      CLOUDY    50  37  61 NE5       29.95R
NORTH ADAMS    CLOUDY    46  36  68 E6        29.95S
PITTSFIELD     CLOUDY    45  36  70 VRB3      29.92S
$$

RIZALL-312300-
RHODE ISLAND

CITY           SKY/WX    TMP DP  RH WIND       PRES   REMARKS
PROVIDENCE     CLOUDY    50  40  68 NE15      29.97R
NEWPORT        CLOUDY    52  41  66 NE15G21   29.94S
BLOCK ISLAND   CLOUDY    52  45  76 E13G22    29.92R
SMITHFIELD     CLOUDY    48  34  57 NE9       29.96S
WESTERLY       CLOUDY    51  42  71 NE8       29.94R
$$

CTZALL-312300-
CONNECTICUT

CITY           SKY/WX    TMP DP  RH WIND       PRES   REMARKS
BRADLEY INTL   MOCLDY    51  38  60 N9        29.94R
HARTFORD       CLOUDY    51  39  63 VRB6      29.94S
BRIDGEPORT     CLOUDY    54  41  61 NE12      29.92R
DANBURY        CLOUDY    51  36  56 NE9       29.92S
GROTON         CLOUDY    50  43  77 NE15      29.93R
NEW HAVEN      CLOUDY    54  40  59 N9        29.92S
CHESTER        NOT AVBL
MERIDEN        CLOUDY    51  38  60 N6        29.94R
WILLIMANTIC    CLOUDY    52  39  61 E10       29.95R
OXFORD         CLOUDY    48  36  61 NE7       29.93R
$$

MEZ002-015-021-024-NHZ003-005-008-011-012-014-VTZ005-008-312300-
NORTHERN NEW ENGLAND

CITY           SKY/WX    TMP DP  RH WIND       PRES   REMARKS
PORTLAND ME    CLOUDY    48  34  58 CALM      30.03R
BANGOR ME      CLOUDY    46  33  60 N6        30.04S
CONCORD NH     CLOUDY    46  34  62 CALM      30.00F
MANCHESTER NH  CLOUDY    48  34  58 E6        29.98F
NASHUA NH      CLOUDY    49  36  61 E7        30.00S
PORTSMOUTH NH  CLOUDY    47  33  59 E6        30.01S
JAFFREY NH     CLOUDY    45  35  68 CALM      29.98S
KEENE NH       CLOUDY    46  30  53 CALM      29.99R
BURLINGTON VT  CLOUDY    44  29  55 N8        30.02S
MT. WASHINGTON FOG       21  21 100 NW18        N/A  VSB 1/16WCI   6
$$

NYZ052-076-312300-
EASTERN NEW YORK

CITY           SKY/WX    TMP DP  RH WIND       PRES   REMARKS
ALBANY         MOCLDY    50  34  54 NE6       29.95S
NEW YORK CITY  CLOUDY    54  42  64 NE9       29.90S
$$

ANZALL-312300-
MARINE OBSERVATIONS

STATION/POSITION TIME  TEMP    WIND        PRES    VSBY  WAVE
                       AIR SEA DIR/SP/G                  HT/PER
                 (UTC) (F)     (DEG/KT/KT) (MB)    (MI)  (FT/S)
BOSTON BUOY      2150   50 54   70/ 14/ 17 1015.5F         2/ 4
BUZZARDS BAY     2100           50/ 20/ 23 1014.1S
NANTUCKET SOUND  2150   53 57   60/ 21/ 25 1013.5F         3/ 4
MASS BAY-STELLWA 2104   49 54   40/ 12/ 16   N/A    1 7/8  2/ 5
ISLE OF SHOALS   2200   49      70/ 12/ 14 1015.7F
S OF BLOCK IS    2108      61                N/A           3/ 4
$$

......................KEY.........................
  SKY/WX - SKY CONDITION/PRESENT WEATHER
  TMP    - TEMPERATURE IN FAHRENHEIT
  DWPT   - DEWPOINT IN FAHRENHEIT
  RH     - RELATIVE HUMIDITY IN PERCENT
  WIND   - DIRECTION AND SPEED IN MPH
  PRES   - MEAN SEA LEVEL PRESSURE IN INCHES OF HG
  WCI    - WIND CHILL INDEX
  VSB    - VISIBILITY IN MILES
  HX     - HEAT INDEX
  TC     - TEMPERATURE IN CELSIUS
  VRB    - VARIABLE WIND DIRECTION
  N/A    - NOT AVAILABLE



USA.gov is the U.S. government's official web portal to all federal, state and local government web resources and services.